Regional Weather Roundup
Issued by NWS Wilmington, NC

Home | Current Version | Previous Version | Text Only | Print | Product List | Glossary On
Versions: 1 2 3 4 5 6 7 8 9 10 11 12 13 14 15 16 17 18 19 20 21 22 23 24 25 26 27 28 29 30 31 32 33 34 35 36 37 38 39 40 41 42 43 44 45 46 47 48 49 50
000
ASUS42 KILM 032012
RWRILM
RWRILM
REGIONAL HOURLY WEATHER ROUNDUP
NATIONAL WEATHER SERVICE WILMINGTON NC
300 PM EST SAT DEC 03 2016

NOTE: "FAIR" INDICATES FEW OR NO CLOUDS BELOW 12,000 FEET WITH NO
SIGNIFICANT WEATHER AND/OR OBSTRUCTIONS TO VISIBILITY.

...............WFO WILMINGTON COUNTY WARNING AREA...............

......COASTAL NC AND SC COUNTIES......

CITY           SKY/WX    TMP DP  RH WIND       PRES   REMARKS
WILMINGTON     CLOUDY    53  30  41 NW6       30.23R
N MYRTLE BEACH CLOUDY    52  31  44 VRB7      30.22S
MYRTLE BEACH   PTSUNNY   54  30  40 N12       30.25S

......INLAND NC AND SC COUNTIES.......

CITY           SKY/WX    TMP DP  RH WIND       PRES   REMARKS
LUMBERTON      MOSUNNY   53  29  39 NE7       30.22S
ELIZABETHTOWN  MOSUNNY   52  31  43 NW3       30.22S
WHITEVILLE     PTSUNNY   52  30  43 N3        30.21F
FLORENCE       PTSUNNY   54  32  43 CALM      30.23F
DARLINGTON     PTSUNNY   55  33  43 VRB5      30.23F
KINGSTREE      FAIR      52  32  46 CALM      30.23F
HARTSVILLE     FAIR      52  32  46 CALM      30.22S
BENNETTSVILLE  FAIR      55  32  41 CALM      30.23R
CONWAY         FAIR      52  32  46 CALM      30.23S
GEORGETOWN     NOT AVBL
MARION         FAIR      50  32  50 CALM      30.23S

....................REST OF NORTH CAROLINA......................

.........EASTERN NC.........

CITY           SKY/WX    TMP DP  RH WIND       PRES   REMARKS
CAPE HATTERAS  SUNNY     54  35  48 VRB5      30.18S
JACKSONVILLE   MOSUNNY   54  30  40 NW6       30.22S
MOREHEAD CITY  SUNNY     54  32  43 N9        30.21R
KENANSVILLE    CLOUDY    54  28  37 CALM      30.21F
NEW BERN       SUNNY     53  31  42 NW6       30.21R
ELIZABETH CITY SUNNY     53  29  39 NW9       30.19R

.........CENTRAL NC.........

CITY           SKY/WX    TMP DP  RH WIND       PRES   REMARKS
RALEIGH DURHAM PTSUNNY   53  26  35 NW6       30.24R
ROCKY MOUNT    MOSUNNY   52  28  39 NW5       30.23R
ROANOKE RAPIDS NOT AVBL
FAYETTEVILLE   SUNNY     52  29  41 E5        30.21F
HOFFMAN        MOSUNNY   53  29  41 NE7       30.22S

.........WESTERN NC.........

CITY           SKY/WX    TMP DP  RH WIND       PRES   REMARKS
CHARLOTTE      CLOUDY    52  31  44 NE5       30.23S
GREENSBORO     CLOUDY    49  28  44 NW7       30.22S
HICKORY        NOT AVBL
BOONE          NOT AVBL
ASHEVILLE      NOT AVBL

.....................REST OF SOUTH CAROLINA.....................

.........EASTERN SC.........

CITY           SKY/WX    TMP DP  RH WIND       PRES   REMARKS
CHARLESTON     PTSUNNY   58  34  40 CALM      30.22S
BEAUFORT MCAS  CLOUDY    60  37  42 E3        30.22S
HILTON HEAD    NOT AVBL

.........CENTRAL SC.........

CITY           SKY/WX    TMP DP  RH WIND       PRES   REMARKS
COLUMBIA       CLOUDY    56  33  42 VRB5      30.22F
ORANGEBURG     MOSUNNY   53  34  48 E5        30.22F
SUMTER SHAW    CLOUDY    54  33  45 N6        30.21F

.........WESTERN SC.........

CITY           SKY/WX    TMP DP  RH WIND       PRES   REMARKS
GREENVILLE     NOT AVBL
ROCK HILL      PTSUNNY   53  31  42 N5        30.22S
ANDERSON       MOSUNNY   55  28  35 CALM      30.21F
CLEMSON        NOT AVBL
GREENWOOD      PTSUNNY   53  31  42 CALM      30.23F


...................COASTAL AND OFFSHORE REPORTS..................

................LOCAL PIERS AND NC RESERVE................


STATION/POSITION TIME  SKY/WX   TEMP    WIND        PRES    VSBY
                                AIR SEA DIR/SP/G
                 (UTC)          (F)     (DEG/KT/KT) (MB)    (MI)
JOHNY MRCER PIER 1948            52 63  360/  8/  9 1021.9F
NC RESRV MASNBRO 1845            54      30/  2     1022.0
OCEAN CREST PIER NOT AVBL
SPRINGMAID  PIER NOT AVBL


................COASTAL AND OFFSHORE BUOYS................


STATION/POSITION TIME  SKY/WX   TEMP    WIND        PRES    VSBY
                                AIR SEA DIR/SP/G
                 (UTC)          (F)     (DEG/KT/KT) (MB)    (MI)
DIMNDSHOAL 41025 1950            59 74  360/ 16/ 19 1021.6S
WVE H/P(F/S)=  5/ 8 SWL H/P/D(F/S/D)=  3/ 30/ 8

CAPE LOOKOUT     2000            51     340/  8/ 10 1022.5R
ONSLOW BAY 41036 NOT AVBL
ONSLOW BAY 41064 1908            51 71  360/  8/ 12 1022.9F
ONSLOW BAY 41159 NOT AVBL
5SE WRITBC 41038 NOT AVBL
MASNBO INL 41110 1959               63                N/A
WVE H/P(F/S)=  2/ 9

WILM HARBR 41108 1956               63                N/A
WVE H/P(F/S)=  2/ 8

27SE WRITB 41037 1908            50 69  360/ 10/ 16 1022.9S
FRYING PAN 41013 2000            52 73   10/ 14/ 19 1022.6
SUNST NRSH 41024 1908            51 61   10/  6/ 10 1023.3F
CAPRS NRSH 41029 1908            53 62   60/ 10/ 14 1023.3F
EDISTO     41004 1950            57 75   20/ 14/ 17 1022.5R
WVE H/P(F/S)=  4/ 6 SWL H/P/D(F/S/D)=  2/130/ 8



..........OFFSHORE BUOYS BEYOND 100 NM OFFSHORE...........
.....IN A TRIANGLE---HAT TO BERMUDA TO BAHAMAS TO HAT.....


STATION/POSITION TIME  SKY/WX   TEMP    WIND        PRES    VSBY
                                AIR SEA DIR/SP/G
                 (UTC)          (F)     (DEG/KT/KT) (MB)    (MI)
150E HAT   41001 NOT AVBL
W BERMUDA  41048 1950            67 73  310/ 17/ 21 1016.0R
WVE H/P(F/S)=  7/ 8 SWL H/P/D(F/S/D)=  3/360/ 9

ATLANTIC S 41049 1950            76 76  270/ 10/ 12 1014.1R
WVE H/P(F/S)=  4/ 8 SWL H/P/D(F/S/D)=  3/320/ 8

E BAHAMAS  41046 2000            77 78  350/  8/ 10 1015.3
NE BAHAMAS 41047 2000            74 78  360/ 12/ 16 1016.3
120E CANVRL41010 NOT AVBL

END



USA.gov is the U.S. government's official web portal to all federal, state and local government web resources and services.